Theta_e
304 304 305 304 304 305 305 305 305 305 305 305 305 305 305 306 306 306 306 306 306 306 306 306 306 306 306 307 307 307 307 308 308 308 307 306 306 306 306 306 307 307 307 307 308 309 310 310 310 310 310 311 313 313 314 313 313 314 315 315 315 315 315 314 313 312 312 311 311 311 311 310 311 313 311 310 311 312 312 310 309 308 307 305 303 304 304 304
304 304 304 305 305 305 305 305 305 305 305 305 305 305 306 306 306 306 306 306 306 306 306 306 306 306 307 307 307 307 308 308 308 308 307 306 306 306 306 306 306 307 307 307 308 309 310 310 310 310 310 311 312 312 312 312 312 313 315 315 314 315 314 313 311 311 311 310 310 311 310 310 310 311 310 309 309 308 307 306 306 306 305 304 303 303 303 303
304 305 305 305 305 305 305 305 305 305 305 305 305 306 306 306 306 306 306 306 306 306 306 306 306 306 307 307 307 307 308 309 309 308 307 306 306 306 307 307 306 307 307 307 308 308 308 309 310 310 309 310 311 312 311 312 311 312 313 314 314 314 313 312 311 310 310 309 309 310 310 310 309 309 308 309 308 304 303 303 303 304 305 304 303 303 303 303
305 305 305 305 305 305 305 305 305 305 306 306 306 306 306 306 306 306 306 306 306 306 306 306 306 306 307 306 307 307 308 310 309 308 307 307 306 306 307 307 307 307 307 307 307 307 308 308 309 309 309 310 311 311 311 311 311 311 312 313 313 312 312 310 309 309 308 308 309 309 309 309 307 306 305 307 306 303 302 302 302 303 304 304 303 303 303 303
305 305 305 305 305 305 305 305 305 306 306 306 306 306 306 306 306 306 306 306 306 306 306 306 306 306 306 307 307 306 308 311 309 307 307 307 306 306 306 307 307 307 307 307 307 308 308 308 309 309 309 310 311 312 312 311 311 311 312 312 312 312 311 309 307 308 308 308 309 309 308 308 306 304 302 303 302 301 301 301 302 303 303 304 303 303 303 303
305 305 305 305 305 305 306 306 306 306 306 307 307 306 306 306 306 306 306 306 306 306 306 306 306 306 307 307 307 308 310 311 308 306 307 306 306 306 306 307 307 307 307 307 308 308 308 309 309 309 310 310 311 312 312 311 311 311 311 311 311 311 310 309 307 307 307 308 308 307 307 307 305 302 301 301 301 300 301 301 302 303 303 303 302 302 301 301
306 305 305 305 305 306 306 306 306 306 306 307 306 306 306 306 307 306 306 306 306 306 306 306 306 306 307 307 309 311 310 308 306 306 306 306 306 306 306 307 307 307 307 307 308 309 309 309 309 310 311 312 312 312 312 311 310 310 311 311 310 310 309 307 306 306 306 307 306 306 306 306 304 302 301 300 300 300 300 300 300 301 301 301 300 300 299 299
307 306 305 305 306 307 306 306 306 306 306 306 306 306 306 306 307 307 306 306 306 306 306 307 306 306 307 307 311 314 309 305 306 306 306 306 306 306 306 306 307 307 307 307 308 308 308 309 310 310 311 312 312 312 313 311 311 311 311 311 310 310 308 307 306 306 306 305 305 306 305 304 303 301 300 300 300 299 299 299 299 299 299 298 298 298 298 297
306 306 306 306 307 306 306 306 306 307 307 307 307 307 307 307 307 307 307 307 306 306 306 306 306 307 307 307 311 312 307 305 306 306 306 307 306 306 306 306 306 307 307 308 307 308 309 309 310 309 310 311 310 313 313 311 312 312 311 312 311 310 308 307 307 306 306 305 305 305 304 303 303 302 300 300 299 298 298 298 297 297 297 296 296 295 295 295
306 306 306 307 306 306 306 306 306 307 308 308 307 307 307 307 307 307 308 307 306 306 306 306 307 308 309 309 312 311 306 306 307 306 307 307 307 307 306 306 306 306 307 308 308 308 308 309 309 308 309 310 309 312 313 312 313 312 311 310 310 310 308 308 308 306 305 305 305 304 303 302 302 302 300 299 299 298 297 297 296 295 294 294 294 293 292 292
306 306 306 306 306 306 306 307 307 307 307 307 307 307 308 308 308 307 307 307 307 307 306 306 307 309 309 309 310 308 306 306 306 306 307 306 307 306 306 306 306 307 307 308 308 308 307 308 308 308 309 311 311 312 312 312 313 311 309 309 309 309 308 308 307 306 305 305 305 303 301 301 301 300 300 299 299 298 297 296 295 293 292 291 291 291 290 290
306 306 306 306 306 307 307 307 307 307 307 307 307 307 308 308 308 308 307 307 307 306 307 307 307 310 310 308 307 306 306 306 307 307 307 307 307 307 306 306 306 307 306 307 308 307 307 307 307 308 311 311 311 314 313 311 310 309 309 310 311 309 308 308 307 307 306 305 305 305 303 300 299 300 300 299 298 297 297 295 294 292 290 290 289 289 289 288
306 306 307 307 307 307 307 307 307 307 307 307 307 306 308 309 309 309 308 308 307 307 307 307 308 311 311 308 306 306 306 306 306 306 306 307 307 307 307 307 307 307 307 307 307 307 307 307 307 309 311 310 312 314 312 309 309 310 310 310 312 311 309 308 307 307 306 305 304 306 306 300 298 300 300 299 298 297 296 295 293 291 290 289 288 288 288 288
307 307 307 307 307 307 307 308 308 307 307 307 307 307 308 309 309 309 308 308 308 308 307 307 309 310 309 307 306 307 307 306 306 306 307 307 307 308 307 307 307 307 307 307 307 307 307 307 307 310 310 310 311 312 311 310 309 310 313 313 313 314 310 307 308 307 305 305 304 306 305 299 298 299 299 299 298 297 296 295 293 291 290 289 289 288 288 288
307 307 307 307 307 307 307 307 307 307 307 307 307 307 308 309 308 308 308 308 308 308 307 308 311 311 308 306 307 307 307 307 306 306 307 307 307 307 307 307 307 307 307 307 307 307 307 307 308 311 311 310 310 312 314 314 311 312 315 315 314 314 310 307 308 308 307 306 306 308 305 298 298 299 299 299 298 296 295 294 293 291 290 290 289 289 288 288
306 306 306 307 306 307 307 307 307 307 307 307 307 307 308 308 308 308 308 308 308 308 308 309 311 311 309 307 307 307 307 307 306 306 306 306 307 307 307 307 307 307 307 307 307 307 308 308 309 310 311 310 310 312 314 315 314 313 314 314 314 313 310 308 307 307 308 307 306 307 304 299 298 298 298 298 297 296 294 293 292 291 291 290 289 289 289 289
306 306 306 307 307 307 307 307 307 307 307 307 306 308 308 308 308 308 308 308 308 309 309 309 310 311 309 307 307 307 307 307 306 306 306 306 307 307 307 307 307 307 307 308 308 308 308 309 310 310 310 309 309 311 314 315 314 313 312 312 312 311 310 310 308 306 308 306 303 302 301 298 298 298 298 297 296 295 294 293 292 291 291 290 290 289 289 289
306 306 307 307 307 307 307 307 307 307 308 307 306 308 308 308 308 308 308 309 310 311 310 309 310 311 310 307 307 307 306 307 306 306 306 306 307 307 307 308 308 307 307 308 309 309 310 311 311 310 309 308 307 309 313 313 311 311 312 312 312 311 310 310 308 307 308 305 302 300 299 298 298 297 297 296 295 295 294 293 292 292 291 290 290 290 289 289
307 307 307 307 307 307 308 307 308 308 307 307 307 308 309 309 308 308 308 308 310 312 311 309 309 310 309 307 306 306 307 307 307 306 307 307 307 308 308 308 308 308 309 311 311 311 311 310 310 309 308 308 307 308 310 309 309 310 311 311 312 312 310 309 307 307 307 305 302 300 299 298 297 297 297 296 295 295 294 293 292 292 291 291 290 290 290 289
306 307 307 307 307 307 307 308 309 307 307 307 306 308 313 313 310 307 307 307 307 308 308 308 308 307 307 306 306 307 307 307 307 306 307 308 308 309 309 309 310 310 311 313 313 311 310 309 309 309 308 307 306 307 307 307 308 310 311 312 313 311 309 308 307 307 307 305 301 300 299 298 297 297 297 296 295 295 294 293 293 292 291 291 290 290 290 289
305 306 307 307 307 307 308 308 308 307 306 306 307 312 315 315 312 309 308 308 307 308 307 307 307 307 306 306 306 306 306 307 307 306 306 308 309 309 310 310 311 311 311 313 312 309 308 308 308 308 306 306 306 307 307 308 310 311 311 311 310 310 307 307 307 307 307 305 301 299 298 297 297 296 296 296 295 295 294 293 293 292 292 291 291 291 290 290
306 306 306 307 307 307 308 308 308 306 306 305 307 311 311 311 312 311 310 310 308 308 308 307 307 306 306 306 306 306 306 306 306 306 306 307 308 309 310 311 311 310 310 312 312 309 307 307 307 306 306 307 307 306 306 309 311 310 309 308 309 308 307 308 309 308 307 305 301 300 298 297 296 295 295 295 294 294 294 293 293 293 292 292 292 291 291 290
306 306 306 307 307 307 308 308 307 306 306 305 306 308 309 310 310 310 311 311 310 309 307 307 306 306 306 306 306 307 306 305 306 305 305 307 308 308 309 310 311 310 309 309 310 308 307 306 306 306 307 307 307 305 305 309 311 308 307 306 307 307 307 308 308 308 307 305 302 299 298 297 296 295 294 294 294 293 293 293 293 293 292 292 292 292 291 291
307 307 307 307 307 307 308 307 307 306 306 306 306 307 309 310 309 311 313 312 311 310 308 307 306 306 306 306 306 307 307 305 305 305 305 306 308 308 308 309 310 310 308 308 308 307 306 306 306 307 308 307 307 305 304 306 308 308 306 305 305 306 306 306 306 307 307 305 302 300 299 298 297 296 295 294 294 294 293 293 292 292 292 292 292 291 291 290
306 306 306 307 307 307 307 308 307 306 306 306 306 307 308 310 310 312 315 313 311 310 310 309 307 306 306 306 307 307 307 306 305 306 305 306 307 309 309 309 309 310 310 309 307 306 305 304 306 307 307 306 306 304 304 305 308 308 307 306 305 304 305 305 306 307 307 305 303 303 303 301 298 297 296 295 295 294 294 293 293 292 292 292 291 291 290 290
306 307 306 306 307 306 308 311 308 306 308 306 305 307 308 309 310 309 314 317 312 309 311 310 307 307 306 307 307 307 308 307 306 306 306 306 307 308 310 309 309 310 310 309 308 306 305 304 305 306 306 306 305 304 303 305 307 307 307 307 306 305 305 306 307 307 307 307 306 305 302 301 300 297 296 296 295 294 294 294 293 293 292 292 292 291 291 290
306 306 306 306 306 306 309 311 307 306 309 308 306 307 306 308 309 307 313 319 312 309 310 309 307 307 308 307 306 307 308 307 307 306 306 306 306 308 309 309 310 310 309 308 308 306 304 304 305 305 306 305 304 303 303 305 306 306 306 306 306 306 305 306 307 307 307 306 306 304 301 301 302 299 296 296 295 294 294 294 293 293 292 292 292 291 291 290
306 306 306 306 307 306 307 308 306 306 308 307 307 307 307 308 308 309 315 316 310 308 309 308 307 307 308 308 307 307 307 307 307 307 306 306 306 308 309 309 309 308 309 309 308 305 303 305 305 304 305 304 304 303 303 305 305 304 305 305 305 306 305 306 307 307 306 306 305 304 302 301 303 300 296 296 295 295 294 294 293 293 292 292 292 291 291 290
306 306 306 307 307 306 306 306 307 307 307 307 307 308 308 308 309 313 317 313 309 309 309 308 308 307 308 308 307 307 307 307 308 307 307 306 306 306 307 309 308 307 307 307 306 305 303 304 304 304 303 303 304 303 304 305 304 303 304 306 306 306 305 306 306 306 305 306 305 302 302 302 302 300 297 297 297 297 296 294 293 293 293 292 292 291 291 290
305 306 306 307 306 306 307 307 306 307 307 307 308 309 308 309 313 316 314 310 309 310 309 309 308 307 308 309 307 307 308 307 307 308 307 306 305 305 306 307 307 307 307 306 306 305 304 304 304 303 302 302 302 303 304 305 304 304 305 305 307 307 306 305 306 305 304 304 303 301 302 301 300 300 298 298 298 297 296 295 294 293 293 292 292 291 291 290
305 306 306 306 306 306 306 306 306 306 306 307 308 309 310 313 315 314 309 308 310 311 309 308 308 308 308 309 307 307 308 308 307 308 308 306 305 304 304 305 305 307 307 307 307 306 305 305 304 302 301 301 301 302 304 305 304 303 304 303 304 305 304 303 304 304 302 302 302 301 302 301 300 301 299 297 296 296 296 296 294 293 293 292 292 291 291 290
306 306 306 306 306 306 306 306 306 306 306 307 307 309 313 315 313 310 309 309 310 309 307 308 309 308 309 309 307 307 308 308 307 308 308 307 305 304 304 303 304 307 308 307 308 307 305 304 303 303 302 301 301 300 301 305 304 301 301 302 302 302 301 301 302 302 300 301 300 300 301 300 300 300 297 296 295 295 295 295 295 294 293 293 292 291 291 290
306 306 306 307 306 306 306 305 306 306 306 306 307 310 314 314 309 308 308 310 309 308 307 308 309 309 309 308 307 307 307 307 307 307 307 307 306 304 304 303 303 305 307 307 306 306 305 304 303 303 302 301 301 298 299 302 303 300 299 301 303 301 299 300 300 300 300 301 300 300 301 300 301 299 296 295 295 294 294 294 294 294 293 293 292 291 291 290
306 306 307 307 306 307 306 306 306 306 307 308 311 315 316 312 308 307 307 308 308 308 308 308 308 309 308 307 306 306 307 308 307 306 306 306 304 304 303 303 302 302 304 306 304 304 306 305 303 302 301 301 301 300 300 302 302 301 300 300 302 301 299 301 300 300 302 301 300 301 301 301 302 299 295 295 294 294 294 293 293 293 292 292 291 291 290 289
306 307 307 306 307 307 306 307 308 309 311 312 313 315 313 309 307 307 308 307 307 308 308 308 309 310 309 307 307 307 307 307 307 305 304 303 303 303 303 302 302 301 302 305 304 303 305 304 302 302 300 300 301 301 301 301 300 301 300 300 301 300 299 301 301 300 301 301 300 301 300 301 299 295 294 294 293 293 293 293 292 292 292 292 291 290 290 289
307 307 307 306 307 307 307 308 308 310 313 313 311 310 308 307 306 307 307 307 307 307 307 308 309 309 309 308 307 307 306 306 307 306 304 303 302 302 302 302 302 301 301 304 304 303 304 304 302 301 300 299 300 301 301 300 299 299 299 298 299 299 299 301 301 300 300 300 299 299 299 298 296 295 294 293 293 293 293 292 292 292 292 292 291 291 290 289
307 307 307 307 307 307 309 309 309 310 310 310 310 308 306 305 306 307 306 306 306 306 307 309 308 307 308 307 306 306 306 306 307 306 305 304 303 301 301 302 301 301 300 301 303 302 303 304 302 301 302 300 299 301 300 299 298 298 298 298 299 300 299 299 300 300 299 298 297 297 298 298 298 297 294 293 294 294 293 293 292 292 292 292 291 291 290 289
309 308 307 307 307 307 308 309 310 310 308 309 309 308 307 306 306 306 305 305 306 306 307 308 307 307 307 306 305 305 306 306 306 306 304 304 303 301 300 301 301 301 300 301 303 302 302 304 302 300 302 301 300 301 300 299 299 298 298 299 299 299 300 299 299 299 298 297 297 297 297 297 298 299 296 294 295 294 294 294 293 293 293 292 292 291 290 289
310 310 307 307 308 308 308 309 310 310 309 310 310 308 307 306 305 304 303 304 305 306 306 306 307 307 306 305 305 305 306 306 305 305 305 304 304 301 299 299 300 300 299 301 301 301 302 303 302 301 302 302 300 301 300 299 299 299 299 299 298 299 300 299 298 298 298 298 297 297 296 297 298 299 297 296 295 294 294 294 293 293 293 292 292 291 290 289
311 311 307 306 308 308 308 308 308 309 309 309 308 308 307 306 305 302 301 304 306 305 306 306 306 306 306 305 305 305 305 305 305 305 304 303 303 301 298 297 299 299 299 301 300 300 302 302 302 302 302 302 301 299 299 298 298 299 299 298 298 299 299 298 298 298 298 298 297 296 295 296 297 297 296 296 295 294 294 293 292 292 292 292 291 290 290 289
312 312 308 307 307 307 307 307 307 308 308 308 308 307 307 307 306 303 302 304 305 304 305 306 306 305 305 306 305 305 305 305 304 304 304 302 302 302 299 298 299 298 299 301 300 299 300 300 300 301 301 302 300 298 298 298 297 297 298 297 297 298 298 298 298 298 297 297 297 296 295 296 297 296 295 295 294 293 293 292 292 291 291 291 290 290 289 289
311 311 308 306 308 308 307 308 307 306 306 307 307 306 305 306 306 304 303 304 304 304 304 305 305 305 305 305 305 305 304 304 304 304 303 302 300 300 300 299 299 299 299 301 299 298 298 298 299 301 300 299 298 297 297 298 297 297 297 296 296 298 298 297 297 297 296 296 296 297 297 297 297 295 294 294 293 293 293 292 291 290 290 290 289 289 289 288
309 309 307 306 308 307 307 308 306 306 305 304 305 305 305 306 305 304 305 304 304 305 304 304 304 304 304 304 304 304 304 303 303 303 303 302 300 299 299 299 299 299 299 301 300 298 298 298 299 301 300 298 297 297 296 296 297 298 298 296 297 299 298 297 296 295 295 295 295 296 296 297 296 294 293 294 293 292 292 291 290 290 289 290 289 289 288 288
307 307 307 307 308 308 310 309 307 306 305 305 305 304 305 304 304 305 306 304 304 304 304 304 304 304 303 303 303 304 303 303 303 302 302 302 300 299 299 299 298 298 299 299 299 299 300 298 298 300 300 299 299 298 297 297 296 297 298 296 296 298 298 296 296 295 295 295 295 295 296 296 297 295 294 293 292 291 291 291 291 290 290 289 289 288 288 288
308 307 305 306 307 308 310 309 307 307 307 307 306 306 306 303 302 304 304 303 303 303 303 303 302 302 303 302 303 303 303 303 303 301 301 301 300 300 300 299 299 298 297 296 295 296 300 299 297 298 299 299 299 299 299 299 298 297 298 297 295 297 298 296 295 296 296 295 295 296 296 296 296 296 295 294 293 292 292 291 291 290 290 289 288 288 287 287
310 310 308 306 305 306 307 306 306 307 307 308 307 306 306 305 303 303 304 303 302 302 303 303 302 302 303 303 304 303 302 303 302 302 301 300 300 300 299 299 299 297 296 295 294 295 299 299 296 296 297 298 298 298 298 299 298 297 298 298 297 297 297 296 296 296 296 296 296 296 296 295 295 295 295 294 293 292 291 291 290 290 289 288 288 287 287 287
309 310 310 309 308 307 307 307 307 308 307 307 307 306 306 306 305 304 304 303 302 302 303 303 303 303 303 304 304 303 302 302 302 302 300 299 300 300 298 298 299 297 296 296 295 296 299 300 297 295 296 297 296 295 296 296 296 296 297 299 298 297 296 296 295 295 296 296 295 295 295 295 295 294 294 294 293 292 290 290 290 289 288 288 287 287 287 286
309 308 307 309 311 310 308 308 308 308 308 306 305 306 306 306 305 305 305 303 302 303 303 304 304 303 302 303 303 303 303 303 302 301 300 299 299 299 299 299 298 297 296 296 295 295 297 299 297 296 296 295 294 294 295 296 296 296 297 297 297 297 296 296 295 294 294 295 295 294 294 295 294 294 294 294 293 291 290 289 289 289 288 288 287 287 286 286
307 307 305 307 308 306 306 308 308 308 308 306 306 307 307 306 305 304 304 304 304 303 303 305 305 302 302 302 303 303 303 303 303 302 301 301 300 300 301 300 299 297 296 297 295 294 296 300 297 296 297 296 295 296 297 297 297 296 297 297 296 296 297 297 296 295 294 295 294 294 294 294 294 294 294 293 292 291 290 290 289 288 288 287 287 286 286 285
307 307 305 305 305 304 304 307 308 308 308 307 307 306 305 306 306 304 303 304 306 304 303 305 304 302 302 302 302 303 303 302 303 302 301 302 301 300 300 300 299 298 296 296 296 296 297 299 297 296 297 297 297 298 298 297 297 296 295 296 295 295 295 296 295 295 295 295 295 295 295 294 294 294 293 293 292 291 290 289 289 288 288 287 286 286 285 285
307 306 305 305 306 305 305 306 308 310 309 307 307 306 305 306 306 305 303 302 303 304 304 304 304 302 302 302 302 303 301 300 301 301 300 300 300 299 299 299 298 298 297 297 298 299 297 297 296 296 297 297 297 297 297 295 295 295 295 295 294 295 295 296 296 296 296 296 295 295 294 294 294 293 293 292 292 291 289 289 288 288 287 286 286 285 285 284
306 306 306 306 306 305 305 306 308 309 308 306 306 306 306 306 304 304 305 302 301 301 301 301 303 303 303 303 303 301 299 298 300 300 299 299 298 298 298 297 297 298 298 298 297 298 298 297 297 296 296 297 296 296 295 294 296 298 298 296 295 295 295 296 296 296 296 295 295 294 294 294 293 292 292 292 291 290 289 288 288 287 287 286 285 285 284 283
Wind_Speed
4 4 5 5 5 5 5 5 4 3 3 3 2 2 2 2 2 2 4 5 5 5 4 4 4 5 6 5 4 3 5 8 6 3 1 2 3 3 3 3 3 2 1 1 1 3 3 3 5 6 6 7 8 8 5 5 6 4 2 3 3 4 4 3 4 6 4 3 6 8 12 8 5 6 7 7 2 6 9 14 14 10 10 11 10 5 4 7
6 6 6 6 6 6 6 5 4 4 3 2 2 1 1 1 1 2 3 4 4 4 4 4 5 5 5 4 3 5 7 9 5 2 4 3 3 3 3 3 3 2 1 1 2 2 5 5 5 5 7 9 8 7 6 6 7 5 2 3 4 4 2 6 7 8 7 5 9 9 11 9 8 8 9 5 9 18 15 16 20 16 14 13 10 9 8 7
7 7 7 7 7 7 7 6 5 5 4 3 2 2 2 2 2 2 3 3 3 3 4 4 4 4 5 3 1 5 7 8 2 4 6 4 4 4 4 3 2 2 1 1 2 3 4 6 4 5 9 9 8 8 6 5 6 8 5 4 3 1 5 10 11 11 11 8 8 8 9 10 13 15 11 6 13 21 16 15 18 16 15 13 11 11 11 10
8 7 7 8 8 8 8 7 6 6 5 4 4 4 4 4 4 4 4 4 3 3 4 4 4 4 4 2 1 4 5 5 1 4 6 5 4 4 4 3 2 2 2 1 2 3 3 6 4 6 9 9 9 8 5 6 6 6 5 4 4 2 4 9 13 11 11 10 7 6 7 9 18 24 20 14 10 11 14 16 15 13 13 11 12 11 12 12
7 7 7 7 8 8 9 8 7 6 6 5 5 4 4 4 5 5 5 5 4 4 4 4 4 4 4 2 1 3 3 2 1 4 6 6 4 4 3 3 3 2 2 1 1 0 2 5 5 8 8 7 9 7 6 10 8 4 4 8 10 5 4 9 12 10 9 8 6 6 7 7 18 24 25 23 12 7 13 15 15 13 11 12 14 13 14 15
6 5 5 6 8 8 9 9 7 6 6 6 6 6 5 5 4 4 4 4 4 4 5 5 4 4 3 2 1 2 1 0 3 6 6 6 5 5 4 3 3 3 1 0 2 3 5 7 7 9 8 7 7 6 8 10 8 3 5 10 8 3 5 8 11 10 9 8 8 8 6 9 21 20 24 27 17 12 15 15 18 19 18 18 19 20 20 20
5 4 5 6 8 9 10 9 8 8 8 8 8 7 7 6 5 5 5 4 3 3 4 4 3 3 3 2 3 3 5 3 5 7 6 7 6 5 4 3 3 2 1 2 4 5 7 7 9 10 8 6 6 6 4 7 7 3 5 7 2 5 6 9 10 9 8 8 9 7 8 16 23 17 21 26 19 17 18 19 22 24 25 24 24 25 24 23
4 4 5 6 8 9 9 10 10 10 10 9 9 8 7 6 6 5 4 3 2 3 4 4 3 3 2 2 2 3 6 5 7 8 7 8 8 6 5 4 3 1 3 4 5 5 6 6 9 8 6 4 3 3 2 3 5 5 5 5 2 5 8 9 8 7 8 7 7 11 16 22 24 22 24 22 18 20 21 22 24 25 27 28 27 26 25 25
5 5 6 7 8 8 9 10 11 11 10 9 9 8 7 6 5 5 4 3 2 2 3 4 3 4 4 1 4 1 5 7 7 9 9 8 8 8 6 4 5 2 4 5 5 5 5 6 8 7 6 6 6 3 2 1 3 2 3 4 4 4 9 7 5 7 8 6 6 14 20 20 20 21 20 18 18 20 22 24 24 25 28 28 28 27 27 27
6 7 7 7 8 8 9 11 12 13 11 10 10 9 7 6 4 4 3 2 2 2 2 3 4 8 10 6 5 2 5 9 9 10 10 8 8 7 6 5 5 4 3 3 5 5 4 5 8 8 7 7 7 4 1 1 2 5 6 7 6 3 7 5 7 10 10 8 12 19 18 20 22 16 11 15 19 19 23 25 24 26 28 27 26 26 26 26
8 8 8 8 8 9 10 11 12 13 12 11 11 11 8 6 4 3 2 1 1 1 2 4 7 11 12 9 6 4 7 10 11 12 11 11 10 8 7 6 5 4 3 2 3 7 5 4 5 5 4 4 6 3 1 1 3 5 4 5 5 3 6 5 8 10 8 7 19 28 20 21 23 15 10 14 19 20 24 26 25 28 28 27 26 26 26 26
8 8 8 8 8 9 11 12 13 13 12 12 11 12 10 6 4 3 2 1 1 1 4 5 8 11 9 12 15 10 9 12 12 14 14 13 11 9 7 6 5 5 3 1 2 7 5 4 3 3 4 5 6 1 1 2 4 4 2 4 3 7 6 6 7 7 6 4 16 21 14 16 16 12 12 16 19 21 24 24 25 26 26 27 27 27 27 26
7 7 7 7 8 9 10 12 12 12 13 12 12 13 11 7 5 5 4 3 3 3 5 6 8 9 6 9 14 11 12 17 16 16 15 12 10 9 8 6 5 5 4 2 4 5 4 3 1 3 6 5 4 2 4 5 3 4 3 3 2 5 5 6 6 7 8 5 10 8 4 8 10 13 15 16 18 21 23 23 23 24 24 26 27 28 28 27
6 6 6 7 8 9 11 12 12 12 13 12 12 13 12 8 6 6 6 4 3 4 5 8 9 8 8 7 10 12 14 19 19 17 14 11 8 7 8 8 7 5 4 3 3 3 2 1 2 2 3 2 4 4 5 4 4 2 1 2 3 3 4 6 7 5 5 5 9 5 4 6 7 13 16 16 18 21 22 21 21 22 23 24 25 26 27 27
5 5 6 7 8 9 11 12 12 12 13 13 12 13 12 9 7 7 7 6 6 7 8 9 8 6 8 7 8 13 15 17 20 20 16 14 9 5 6 7 7 5 4 4 4 3 3 3 2 2 2 2 4 3 4 3 4 2 1 0 1 3 4 6 10 8 4 2 2 2 4 6 7 12 14 16 18 21 21 20 20 21 20 21 22 23 24 24
5 6 7 8 9 10 11 12 12 12 13 13 12 13 11 9 10 12 13 12 11 12 9 7 5 4 5 6 9 12 15 15 19 21 19 18 11 6 6 6 6 6 4 6 6 6 6 4 1 2 3 3 3 3 4 2 1 1 4 3 3 4 3 3 7 10 7 6 10 8 6 5 7 12 14 15 17 20 20 19 19 19 19 20 19 20 21 22
6 6 7 8 9 9 10 11 11 11 12 11 11 12 12 10 13 15 16 15 13 12 10 7 4 4 7 9 11 13 14 15 20 22 20 16 10 8 8 5 3 4 5 6 7 7 4 3 1 2 7 7 6 5 2 2 3 4 5 4 4 4 2 2 4 10 10 10 12 12 11 8 8 12 14 15 17 18 19 18 18 18 18 19 19 19 19 20
6 6 7 7 9 9 10 11 10 10 10 9 8 12 17 15 12 10 10 9 10 9 9 9 4 4 6 12 13 12 12 14 20 23 19 12 9 10 8 5 2 1 1 2 6 7 4 4 5 4 7 7 7 6 4 3 4 4 5 3 4 5 3 5 3 6 9 12 12 11 12 11 10 11 14 15 16 17 17 17 17 17 17 17 18 18 18 19
6 7 7 7 8 8 10 10 10 9 8 6 4 9 14 17 17 16 17 18 16 9 5 10 11 3 3 11 15 11 8 14 20 21 17 10 8 9 8 6 4 3 3 0 7 11 8 8 9 6 5 6 7 6 4 4 5 4 4 3 4 4 3 6 5 4 8 10 10 10 11 10 10 10 12 13 14 16 15 15 16 15 16 16 16 16 16 17
7 7 7 8 8 8 10 10 9 9 7 5 2 5 4 7 11 14 23 29 24 15 10 12 14 10 7 9 16 15 11 13 19 23 17 11 10 8 8 6 4 2 5 2 6 11 11 8 6 5 4 6 7 6 5 5 5 4 4 4 3 1 3 3 5 4 6 9 8 10 12 11 10 8 10 13 13 14 14 13 14 14 14 15 15 15 14 14
7 8 7 8 8 8 10 9 9 8 6 4 2 2 3 2 4 7 16 22 20 17 16 16 13 12 12 10 14 17 14 11 17 25 18 13 12 6 9 9 1 2 6 5 7 12 13 8 5 5 6 6 6 7 7 6 5 4 3 5 3 4 5 4 5 3 4 7 6 10 12 10 9 8 9 12 11 11 11 12 13 13 14 13 13 13 12 12
8 8 7 8 9 9 9 8 8 7 7 4 2 1 3 5 9 12 13 13 14 15 14 15 15 14 13 10 11 14 16 12 17 27 22 16 16 9 10 12 7 5 6 6 6 8 9 6 6 8 7 6 5 8 10 6 4 2 4 4 5 5 5 4 5 2 2 6 6 9 11 8 8 8 8 10 9 10 10 10 11 12 12 12 12 11 10 10
8 8 8 9 9 9 8 6 7 7 5 4 2 2 7 12 14 16 15 10 9 11 11 14 16 17 16 12 10 12 17 15 15 24 26 20 17 13 11 9 7 8 8 7 5 5 6 5 8 9 8 5 5 11 12 6 2 4 6 4 3 5 4 2 2 2 4 6 8 10 9 5 6 6 7 8 9 9 9 8 8 9 10 10 10 9 8 8
9 9 8 9 8 9 7 5 6 5 4 4 3 5 11 15 16 14 10 7 6 6 9 13 14 18 19 16 15 10 11 15 15 20 25 22 16 10 7 7 5 7 8 10 12 10 7 8 12 10 5 6 7 10 11 6 3 3 5 5 3 5 5 3 4 4 4 8 9 10 6 3 4 5 5 6 7 8 8 8 8 8 9 9 8 7 6 6
9 8 8 9 8 9 6 3 6 5 3 3 3 6 12 15 15 11 4 3 5 4 6 9 11 16 18 19 18 7 3 12 17 19 21 21 18 7 3 7 5 5 7 10 11 9 8 13 15 8 5 9 7 7 10 7 3 1 5 5 4 6 6 6 7 4 2 4 6 7 2 1 4 4 4 4 4 6 6 7 8 7 8 7 7 6 5 3
8 8 8 8 8 8 5 3 6 6 3 2 2 5 12 15 14 8 1 1 3 5 6 7 8 12 16 20 19 5 3 7 13 19 21 18 18 9 3 6 4 4 5 6 6 4 7 13 13 8 7 8 7 6 9 8 4 2 3 5 4 5 6 6 7 4 1 2 5 4 0 0 3 4 5 5 4 4 4 5 6 6 5 5 5 5 4 2
9 8 8 8 7 7 4 2 5 5 3 2 1 3 10 14 14 6 2 1 2 4 6 8 7 10 13 17 20 5 2 8 9 16 23 16 15 12 6 5 4 3 2 2 3 3 6 11 11 10 7 6 5 5 7 7 4 3 5 6 5 5 5 6 5 4 2 2 4 1 2 1 2 3 6 6 5 5 4 4 5 5 5 5 5 5 5 4
10 9 8 8 7 7 5 2 4 5 3 3 2 2 7 12 13 6 2 1 3 4 4 6 5 10 11 12 20 13 4 11 7 10 21 16 13 11 8 8 6 6 4 3 3 2 5 7 9 9 7 4 4 4 6 7 3 5 8 8 6 4 4 5 4 5 2 3 2 4 5 1 1 3 6 6 6 5 6 5 5 7 7 7 7 7 7 7
10 10 9 9 7 7 6 4 5 5 4 3 1 2 6 10 10 3 1 1 2 3 3 6 5 10 14 10 16 15 10 12 8 8 15 17 16 9 5 8 9 11 13 10 6 2 2 4 6 7 5 3 4 6 7 5 4 9 13 11 5 3 3 4 4 5 2 1 0 4 5 2 1 3 5 6 5 5 6 5 6 9 9 9 9 9 8 8
11 11 11 10 9 8 7 5 6 5 3 2 3 7 11 11 5 1 1 0 2 3 4 7 5 8 14 8 8 13 11 11 12 11 12 17 21 17 8 9 11 8 9 11 7 4 4 2 3 6 6 7 7 8 8 6 8 12 12 9 2 3 3 4 4 4 2 1 1 2 4 3 0 3 3 3 3 4 5 5 6 10 10 11 10 10 10 9
12 14 13 12 10 10 8 6 6 5 3 2 7 12 12 6 1 1 2 0 2 4 4 4 5 7 9 6 4 10 8 8 13 12 9 11 17 20 12 7 9 4 4 5 4 4 4 2 1 4 12 14 9 6 5 8 9 9 6 6 4 1 1 2 2 1 2 1 1 3 5 3 1 2 2 3 4 4 5 5 7 10 12 12 11 10 10 10
13 15 14 13 12 11 8 7 6 4 2 5 11 10 5 2 4 2 2 1 1 4 2 1 5 6 5 3 4 6 4 5 11 9 6 6 7 11 11 5 5 2 2 2 2 3 3 4 1 2 11 17 9 4 2 3 5 8 5 6 5 3 3 3 4 3 2 3 3 7 6 1 2 0 3 5 5 5 5 5 6 10 12 11 11 11 12 11
13 15 14 13 12 10 8 6 6 3 4 8 11 6 1 3 4 1 2 3 0 1 1 2 3 5 5 3 3 4 2 2 8 9 6 6 5 6 9 9 9 3 2 4 1 1 1 2 5 3 6 13 9 4 4 3 5 7 5 5 3 3 3 2 3 3 3 4 6 6 3 1 2 1 3 5 5 6 5 4 5 8 9 10 11 11 12 13
12 14 13 12 11 10 9 7 6 7 8 9 6 2 5 5 3 0 1 3 2 1 2 2 3 3 2 2 2 3 2 1 5 8 7 5 5 5 6 10 13 6 2 3 1 1 0 1 5 4 3 7 7 4 1 3 4 4 4 4 3 3 2 1 2 3 3 5 8 5 2 1 2 2 3 5 6 6 5 4 5 7 8 10 11 12 13 14
13 15 14 13 14 14 11 9 10 10 10 8 5 4 6 4 1 1 1 2 2 3 4 3 3 2 1 2 1 2 2 1 2 5 7 5 5 5 5 6 10 8 3 2 2 2 2 2 1 1 1 3 4 4 4 2 2 3 4 4 3 2 1 2 3 4 4 5 6 2 1 0 1 2 3 6 5 6 7 7 7 8 10 11 13 14 14 15
13 18 18 15 14 16 13 10 8 7 8 8 7 6 4 2 1 2 2 2 2 3 5 4 3 2 2 2 2 4 3 1 1 1 4 4 4 6 5 3 7 8 4 3 2 1 1 1 2 2 1 2 2 3 6 5 1 2 3 2 2 1 1 1 4 4 4 4 3 2 2 1 1 2 3 5 4 6 7 9 11 12 12 13 14 14 14 16
13 18 20 17 15 14 14 14 11 11 15 14 8 4 2 2 2 2 3 4 3 2 3 2 1 2 3 2 3 6 6 3 2 2 2 2 2 5 5 4 7 9 6 3 1 2 1 1 2 1 1 2 2 3 6 7 4 1 1 3 3 1 3 1 3 3 3 4 3 3 4 4 3 3 2 4 5 6 7 11 14 14 14 15 15 15 15 15
13 15 18 20 17 10 10 13 12 16 22 16 7 4 2 1 3 3 3 4 2 2 2 2 1 1 3 3 2 5 6 5 4 3 3 1 2 5 4 3 6 9 10 8 2 1 2 1 1 2 1 4 4 3 3 4 7 5 1 3 1 1 1 2 1 2 2 3 5 5 4 5 4 2 2 5 7 6 5 4 7 10 14 16 15 14 15 15
9 10 14 17 16 14 9 8 11 16 17 10 4 4 3 2 3 4 4 4 2 2 2 2 1 1 3 2 1 3 4 4 4 3 2 1 2 4 5 3 5 10 14 10 3 2 2 1 1 3 1 3 3 2 1 1 4 4 1 2 2 2 2 1 0 1 2 2 4 6 6 3 2 1 2 4 4 3 0 1 3 6 8 11 12 14 16 17
7 6 10 11 12 16 16 17 21 19 11 5 4 3 2 3 2 4 7 4 2 2 2 2 3 2 2 1 0 2 3 3 4 3 2 3 1 2 5 5 4 9 14 8 2 3 2 1 1 2 0 2 1 1 2 2 2 3 2 3 2 2 1 0 0 1 1 2 2 5 7 4 2 1 3 4 3 3 3 3 5 7 9 10 13 15 17 18
7 5 8 10 7 8 15 22 21 13 5 5 5 3 2 2 2 3 7 6 4 4 3 2 3 3 2 1 1 2 3 3 4 3 2 3 2 1 3 5 4 6 9 5 1 3 3 2 2 3 2 1 1 1 3 3 2 2 1 1 0 1 1 1 2 0 1 1 2 3 8 6 2 2 3 3 4 4 6 6 7 9 11 12 14 15 17 19
9 4 6 11 9 6 14 17 12 6 4 4 4 4 3 2 2 2 4 4 3 2 3 3 3 3 2 2 2 3 3 2 3 3 2 2 3 2 2 5 6 5 3 1 1 2 1 2 3 3 1 2 3 4 4 3 2 1 1 2 2 1 2 1 3 1 1 2 3 3 6 5 1 4 4 4 6 6 8 8 8 9 11 13 15 16 17 19
13 8 6 8 8 12 17 11 5 6 5 2 4 6 4 3 2 2 2 4 2 1 1 2 1 2 3 2 2 2 3 2 2 2 2 3 2 1 2 5 7 5 2 0 1 2 1 1 3 3 0 3 3 3 3 2 1 1 3 3 2 3 4 2 3 0 1 3 3 3 5 4 2 5 5 6 8 8 9 9 10 11 13 13 15 17 18 19
18 16 15 9 4 10 13 5 2 5 3 4 5 4 5 6 5 3 2 4 3 2 2 1 2 3 2 2 2 2 2 2 2 2 1 2 2 1 1 5 6 4 3 0 1 4 2 0 2 3 2 1 1 1 2 1 0 2 2 4 3 5 6 1 1 2 0 5 5 4 6 5 3 5 6 7 9 10 10 10 10 11 13 14 17 20 20 21
13 15 20 18 13 16 14 7 8 6 3 5 5 2 4 5 4 4 3 3 4 4 2 1 1 2 1 1 0 2 2 2 1 0 1 2 2 2 0 3 4 4 3 1 2 3 1 1 2 1 1 2 3 2 2 2 2 2 2 5 4 5 7 2 1 1 2 6 7 5 7 8 4 4 6 6 6 6 7 8 8 12 16 19 20 21 22 23
5 4 10 15 20 23 18 13 12 9 4 3 3 2 2 2 2 3 3 2 3 3 3 1 1 2 1 1 1 2 2 4 3 1 1 1 2 2 1 1 2 2 2 3 3 1 1 2 1 1 3 4 5 6 4 3 4 5 2 5 6 6 7 4 1 3 4 3 5 7 9 13 11 6 5 5 4 5 8 10 11 13 17 19 21 23 24 25
5 2 2 4 10 15 14 12 10 7 3 1 1 2 2 3 2 1 2 2 2 2 2 2 2 1 2 2 1 1 1 1 3 3 1 1 1 1 1 1 0 1 2 2 3 1 1 2 1 1 4 7 7 10 9 5 6 8 6 5 7 7 7 6 6 7 3 3 7 10 8 11 15 12 9 8 7 5 8 11 12 14 18 21 23 25 26 26
5 4 4 4 3 4 5 6 8 8 6 4 2 1 2 3 1 1 2 1 1 2 0 1 3 3 3 2 2 1 2 2 1 2 1 1 1 2 2 3 2 0 1 1 2 2 0 2 1 0 6 8 9 11 11 7 7 8 8 6 6 7 9 9 12 12 5 3 11 14 12 13 16 14 11 10 8 6 8 13 15 17 21 24 25 26 27 26
11 8 7 7 6 5 5 6 7 8 7 4 3 2 2 3 2 1 1 1 1 1 2 1 3 3 2 2 2 1 1 1 1 1 2 2 1 1 2 2 3 2 1 0 2 2 1 1 1 2 6 10 10 9 7 6 7 8 9 8 8 8 9 11 13 12 9 11 16 16 17 18 16 12 11 11 11 11 13 16 17 19 22 24 25 27 26 25
10 8 10 13 11 9 8 5 3 5 3 2 3 1 2 3 2 2 2 3 0 2 4 2 2 2 1 2 3 1 2 2 1 1 3 3 1 2 2 0 1 2 2 2 1 1 1 0 1 2 4 8 6 3 3 5 7 9 10 9 9 9 9 10 11 10 9 12 15 15 16 17 13 11 11 11 14 17 17 17 18 21 23 24 26 27 27 26
14 15 18 16 8 4 4 2 1 2 2 3 2 0 0 2 3 2 2 3 2 2 3 3 3 1 2 2 1 2 3 3 3 2 2 3 1 1 1 1 0 1 1 2 1 2 1 1 0 1 3 5 2 1 5 7 8 10 12 11 10 9 7 7 8 6 7 10 12 11 11 11 9 9 10 12 15 16 16 17 20 23 24 25 27 28 27 25
20 19 16 13 6 2 2 1 2 2 2 2 2 2 2 3 2 2 1 1 3 3 2 2 4 3 3 2 1 1 1 1 2 1 2 2 1 1 1 1 1 1 1 2 1 0 1 1 1 1 2 5 2 2 7 8 7 7 7 6 6 7 6 6 7 7 8 8 8 8 10 10 10 10 11 11 12 13 14 17 19 21 25 26 26 25 24 22
Wind_Direction
50 57 58 55 51 50 51 51 55 56 61 64 72 77 51 35 32 23 12 5 7 15 21 18 5 359 0 3 30 97 112 94 80 73 96 10 358 340 329 334 337 335 301 234 41 328 302 262 237 229 239 237 229 232 224 207 209 212 224 225 253 252 249 348 20 25 21 26 29 48 42 21 21 48 26 357 46 74 65 64 53 52 49 60 84 85 106 141
56 57 56 53 52 50 50 50 50 49 48 49 58 42 9 7 352 351 354 357 2 8 13 6 356 352 353 2 55 117 116 108 105 28 42 25 358 348 332 331 326 353 349 183 118 308 286 270 242 224 241 241 214 206 222 201 196 217 233 236 241 263 322 40 45 40 45 17 358 35 53 27 20 30 4 355 66 54 43 32 32 49 51 47 51 55 87 121
54 55 54 52 51 46 44 39 34 31 24 13 355 330 321 308 303 312 323 335 344 354 5 3 0 353 348 357 97 134 134 136 166 339 16 0 345 348 332 326 309 317 307 229 180 205 239 267 261 237 246 245 207 188 216 194 188 216 220 249 243 293 6 41 50 51 49 28 3 15 34 37 41 35 9 2 61 52 37 15 15 30 39 46 54 63 91 99
56 57 58 56 52 45 39 30 25 21 15 4 345 327 313 302 300 301 307 320 322 327 342 352 356 349 345 343 147 151 154 151 193 319 342 333 325 333 328 327 313 289 262 241 228 206 211 239 249 255 250 257 232 199 207 189 181 214 199 248 277 330 14 54 59 52 45 35 12 1 23 54 55 45 35 35 56 46 26 18 10 10 22 47 67 74 90 90
54 55 56 53 45 37 30 23 19 14 11 5 356 345 328 314 302 295 293 298 304 309 321 340 348 349 351 345 143 157 177 171 320 311 321 321 315 323 328 331 320 299 284 241 221 287 298 257 250 253 243 262 250 213 225 207 196 247 232 256 273 313 27 76 67 44 40 35 15 34 34 61 65 50 45 50 56 37 20 24 27 32 39 56 74 79 85 85
45 45 43 39 32 24 19 17 17 14 7 0 353 346 338 329 313 301 289 285 293 300 314 330 338 347 354 12 90 119 132 43 331 325 327 327 325 327 326 336 325 304 299 1 14 348 300 272 245 241 233 246 246 229 235 204 187 241 258 259 267 353 42 70 64 42 42 40 35 51 26 64 79 61 52 57 55 47 41 44 49 55 64 72 80 79 79 78
30 30 26 23 19 14 15 18 20 12 359 349 341 336 330 322 315 307 298 295 293 300 329 337 342 1 358 77 107 103 91 54 349 339 341 339 337 338 329 338 330 312 17 357 347 327 297 274 248 247 245 243 247 247 219 167 173 205 279 286 325 59 59 61 58 44 48 58 50 52 41 66 81 69 56 59 54 55 57 62 65 66 70 74 75 72 71 71
18 23 20 16 16 17 21 23 19 8 356 348 339 331 322 314 310 302 300 306 307 317 354 353 6 14 2 137 158 116 82 29 351 338 336 340 344 347 333 338 335 328 33 358 338 322 306 291 272 271 273 278 296 285 130 160 204 204 254 287 34 74 79 70 62 60 60 77 69 68 74 74 80 72 59 59 59 63 66 69 72 75 76 75 73 74 75 76
24 27 24 24 24 28 31 28 21 11 6 5 359 346 329 318 308 297 296 291 295 321 4 15 51 45 36 60 253 193 47 355 341 334 329 333 337 344 338 350 348 350 40 4 344 334 319 316 319 334 326 316 330 340 96 197 244 234 281 350 13 63 89 77 68 86 75 79 87 80 77 66 67 70 60 60 69 70 71 71 73 78 76 73 73 74 76 77
39 35 33 35 34 35 31 24 20 16 18 21 18 7 349 338 323 304 298 276 264 305 16 57 92 65 38 358 284 256 1 344 341 334 332 336 334 343 345 350 349 352 23 359 337 322 310 321 327 334 321 315 321 317 111 150 332 343 355 359 328 32 81 78 76 96 88 65 84 86 71 48 51 65 64 66 76 75 72 69 70 73 69 69 71 71 71 71
46 41 41 42 37 32 24 21 19 17 18 19 18 15 5 354 342 329 315 278 248 308 68 98 106 79 52 34 42 34 360 360 356 348 350 349 345 352 352 348 348 347 355 24 342 299 284 295 307 327 310 314 323 293 149 241 297 327 357 327 275 129 87 91 95 112 110 72 94 94 72 47 47 53 65 75 80 77 74 70 67 69 66 67 69 68 67 67
48 45 42 41 33 25 21 19 16 14 14 12 14 17 16 15 12 27 44 69 69 84 93 103 114 94 64 48 49 38 19 18 9 5 2 347 345 351 348 342 342 339 331 39 307 291 293 293 292 340 311 308 323 291 150 300 288 286 266 298 255 128 93 79 91 113 108 96 120 110 72 45 39 41 64 81 85 78 76 73 69 68 66 66 67 66 65 64
51 47 42 36 28 24 20 16 12 11 10 9 11 15 21 34 43 44 46 53 66 102 100 98 120 107 77 52 41 32 27 22 15 11 3 350 343 340 344 346 344 341 329 299 280 292 315 319 301 328 311 307 307 298 299 279 255 263 223 251 245 132 90 64 86 116 102 115 155 147 63 52 39 44 62 75 82 79 76 73 72 72 69 68 68 67 65 64
50 45 37 28 23 22 18 12 10 9 8 9 11 16 24 35 43 37 36 52 78 107 104 103 114 92 80 77 34 27 27 21 16 9 4 4 354 341 344 343 341 345 339 329 321 331 341 6 62 328 321 321 285 294 297 251 200 246 192 186 236 144 95 49 51 85 101 145 175 172 73 76 46 46 58 69 77 78 77 74 75 75 74 73 71 70 69 67
39 31 23 16 11 10 10 8 8 9 11 9 11 21 25 27 31 36 54 77 85 94 107 112 108 78 82 79 21 20 23 18 12 7 5 6 6 354 330 328 345 358 4 9 8 19 38 58 33 294 290 296 288 293 284 232 183 218 21 317 292 98 115 62 42 43 56 94 139 127 105 91 62 49 55 69 76 79 79 76 76 76 77 77 75 74 72 71
21 14 8 5 2 0 4 6 9 13 11 10 18 28 29 40 60 73 77 79 85 88 92 88 55 54 87 52 16 16 16 11 8 8 4 358 1 359 342 354 4 357 20 40 46 45 41 40 338 314 354 341 330 317 281 280 126 66 20 344 7 58 125 114 54 29 37 53 34 53 111 103 74 59 56 69 75 80 81 78 78 77 78 78 77 77 75 74
10 5 357 359 358 355 2 6 11 13 11 14 27 37 46 69 87 90 79 73 84 79 74 78 59 94 77 32 13 3 1 9 8 7 2 355 10 19 13 27 351 345 39 47 40 38 29 5 291 21 33 26 7 349 327 18 22 19 10 342 4 18 349 117 81 14 32 81 60 64 95 90 82 72 63 68 73 79 81 80 82 80 81 80 79 79 77 75
359 353 349 355 355 356 4 6 10 9 9 18 43 62 66 75 88 91 79 76 82 66 59 59 52 127 65 20 6 349 351 17 11 4 2 3 26 34 35 55 55 341 349 25 24 18 8 15 30 44 30 25 15 13 36 22 349 347 353 351 346 341 17 73 102 4 34 89 87 80 92 89 85 76 69 70 74 81 82 83 85 84 85 84 83 82 79 77
341 338 343 351 354 1 2 3 7 5 9 19 67 91 75 73 76 71 70 71 68 62 40 27 28 62 31 2 7 1 7 27 15 5 7 11 19 25 33 33 24 359 312 63 43 29 31 31 32 36 13 12 18 20 18 348 337 331 333 324 298 306 39 82 101 46 47 78 81 84 93 90 83 77 77 76 77 84 87 89 88 88 89 88 88 86 83 79
330 333 340 347 356 3 357 359 5 5 17 22 73 125 107 78 71 59 62 67 69 70 63 45 42 43 25 2 14 23 29 30 16 10 14 18 9 6 9 340 269 6 16 59 52 43 58 60 38 29 8 1 0 360 350 328 322 308 302 293 277 357 19 53 102 90 75 80 79 90 93 88 82 74 76 78 80 85 88 93 93 95 96 95 96 94 90 86
336 338 338 343 351 356 355 359 4 10 30 39 80 127 245 207 113 86 71 69 70 70 59 53 48 35 28 19 20 25 26 20 15 16 21 24 17 5 1 357 271 57 49 97 88 63 62 63 36 17 5 343 333 351 349 310 292 294 309 320 345 60 348 337 100 132 112 98 103 102 93 84 80 68 63 68 72 77 84 97 102 103 104 104 105 103 100 95
350 345 342 344 347 353 356 357 6 16 31 48 99 262 242 166 125 109 99 83 70 68 62 53 49 38 29 24 25 31 28 14 8 16 23 30 34 32 10 23 60 44 42 91 100 70 56 51 22 7 345 316 329 9 356 312 279 339 25 359 352 33 341 336 99 122 65 98 123 108 94 86 84 77 66 65 67 69 75 93 105 114 118 115 114 113 111 105
359 352 350 349 346 353 357 2 14 20 29 47 90 131 137 137 128 115 110 106 79 65 61 52 45 34 27 22 21 32 35 27 6 6 15 25 33 28 13 27 65 50 40 54 68 69 59 35 357 333 307 313 9 20 3 346 34 46 45 27 342 10 357 336 96 2 33 96 128 111 98 102 101 94 83 83 90 90 88 93 94 102 110 113 115 117 116 111
0 354 352 349 347 351 356 11 17 19 30 38 73 135 146 141 139 133 114 110 105 64 48 45 36 28 23 15 9 16 36 36 21 6 9 17 19 20 19 15 40 62 63 64 67 71 56 9 341 314 311 21 35 21 9 5 36 65 56 41 353 345 333 296 299 318 56 95 122 117 104 128 132 116 106 110 115 114 117 117 106 99 103 109 115 117 119 119
357 351 346 346 348 350 354 18 16 16 21 28 80 148 163 158 154 150 130 119 110 37 24 32 23 19 14 5 360 352 60 41 29 13 9 16 17 17 27 10 19 66 73 73 72 68 39 5 349 345 34 43 44 27 13 0 334 52 55 40 8 334 313 295 308 301 128 119 161 159 113 97 134 124 129 139 133 124 131 134 130 130 130 132 135 133 136 133
352 347 345 346 351 355 359 1 358 1 352 13 84 164 173 174 174 167 210 171 81 356 356 10 2 13 13 3 357 338 151 40 22 16 14 18 21 20 12 16 39 68 73 80 83 72 16 2 359 11 43 46 45 33 14 3 351 338 13 20 358 327 310 300 317 318 164 151 182 185 323 188 161 150 148 148 152 149 150 150 148 155 160 165 171 169 175 181
353 351 349 352 355 358 5 326 333 347 345 342 357 183 182 189 190 185 276 198 70 351 353 4 1 19 17 8 13 41 173 340 347 15 16 14 24 38 47 34 53 67 121 133 71 61 1 5 13 14 34 50 35 27 7 359 3 321 329 352 332 307 304 306 311 291 250 130 128 67 351 245 173 157 155 154 165 172 171 172 176 187 192 195 202 202 211 224
354 357 356 358 359 359 5 343 335 358 8 340 337 168 180 189 188 189 288 157 27 342 351 4 7 20 15 20 33 52 41 351 345 7 11 15 28 47 54 37 47 44 44 120 106 50 5 17 22 13 29 41 5 353 336 337 345 308 312 313 296 275 276 287 286 266 248 136 121 14 8 338 167 142 156 170 181 187 190 187 189 201 206 208 215 220 227 243
354 358 359 0 3 3 3 3 6 15 15 6 31 123 144 150 160 176 319 141 359 343 8 5 357 359 1 26 39 37 34 25 17 355 12 28 31 47 65 34 48 51 46 76 114 109 52 46 35 28 31 6 325 304 307 329 312 295 303 295 253 195 248 262 261 264 269 115 350 8 26 3 271 160 167 197 205 190 184 181 191 204 211 216 224 233 240 252
357 359 2 3 2 2 2 10 16 18 18 33 98 121 132 132 139 212 12 99 347 351 357 8 3 344 357 27 36 16 23 32 17 5 25 37 34 43 58 29 38 61 65 71 90 127 142 122 49 44 17 337 300 281 267 260 287 296 305 308 261 156 234 245 235 257 322 39 255 7 35 32 280 188 175 197 183 154 165 171 185 201 213 222 227 237 247 258
4 2 2 3 1 359 3 11 11 18 38 96 134 129 131 128 35 52 77 34 338 358 349 8 12 356 7 36 26 2 11 23 12 10 26 33 33 35 36 20 18 44 118 77 87 125 105 69 89 59 23 1 327 297 244 236 294 323 327 343 13 86 267 287 293 355 27 297 260 14 22 27 248 224 149 150 149 157 179 179 179 194 209 219 225 237 247 259
10 5 2 3 2 358 358 3 5 16 60 125 144 143 142 77 32 48 19 314 281 4 359 312 359 350 346 19 28 358 351 8 6 8 20 26 40 41 44 36 353 343 138 58 126 137 59 35 21 99 32 13 354 349 9 261 328 358 359 6 18 17 10 351 341 8 349 290 329 8 20 25 259 1 127 152 158 173 187 181 180 191 204 215 225 237 248 259
13 7 3 4 4 4 6 9 14 36 106 132 146 149 41 56 60 39 340 353 287 327 308 244 322 325 313 341 21 353 332 358 2 4 14 29 49 56 57 38 9 355 332 356 93 164 302 18 12 3 12 13 15 26 19 341 346 0 359 11 33 28 11 332 323 334 293 293 321 349 37 167 253 112 139 153 156 169 173 170 181 191 205 217 226 237 247 255
21 13 12 19 23 25 27 37 52 78 104 121 145 108 50 70 81 151 1 21 23 309 311 285 289 299 326 30 24 354 19 56 15 17 17 32 43 28 33 24 13 9 326 339 40 357 299 82 5 353 330 2 25 44 23 269 301 326 337 10 58 62 22 290 310 317 289 294 304 320 65 255 273 196 148 126 136 159 165 173 185 197 210 218 228 237 243 252
32 28 31 37 39 39 47 70 79 79 84 85 80 60 60 78 86 28 13 356 357 329 328 329 292 264 137 95 51 33 41 39 60 54 37 40 49 18 3 7 9 8 350 349 0 354 90 128 7 59 60 18 31 16 346 294 257 292 339 22 50 33 334 268 271 271 280 294 292 288 132 98 320 238 154 118 142 177 180 190 196 205 215 220 228 236 244 256
41 39 38 41 45 46 52 71 76 68 77 81 72 61 59 69 28 10 5 319 317 323 313 312 322 352 40 101 49 22 21 15 257 121 74 73 70 30 7 4 15 17 21 18 10 354 45 118 163 164 111 42 63 18 2 9 247 266 3 19 289 292 89 273 282 280 293 299 292 315 328 14 6 254 186 147 181 194 187 201 210 216 225 227 230 239 250 259
50 45 38 40 47 50 62 71 74 87 89 84 76 67 73 62 11 352 355 329 304 288 300 315 27 5 358 37 37 356 343 343 327 338 76 107 52 14 355 359 16 21 23 9 41 100 12 267 196 194 204 166 126 62 27 23 38 65 355 322 293 34 99 196 286 308 314 298 284 301 313 306 300 288 202 188 213 212 204 211 214 219 227 232 235 242 254 265
55 49 38 38 42 47 72 73 73 88 85 78 79 78 65 35 21 4 348 332 296 256 320 17 60 340 1 15 16 350 345 347 340 356 43 53 6 6 351 351 6 5 358 344 332 69 0 324 227 268 150 157 151 91 31 26 64 101 192 312 0 87 13 284 283 311 310 298 285 289 309 302 280 254 183 203 214 216 219 218 220 227 231 234 238 246 261 274
50 48 36 39 52 60 73 89 89 88 80 72 88 82 67 79 46 14 358 344 304 293 0 35 25 45 39 9 321 356 4 7 354 354 39 19 352 20 16 355 337 343 343 339 345 357 335 118 225 265 214 141 158 110 22 357 68 99 131 9 77 174 253 273 125 221 253 283 296 300 307 298 258 204 153 177 190 174 110 319 294 280 261 249 249 258 271 280
57 58 32 35 67 74 80 89 81 74 69 63 78 76 81 108 73 25 25 25 351 352 22 17 349 16 43 52 99 7 1 31 24 14 33 15 357 51 28 6 328 327 330 327 2 13 324 204 291 282 301 94 160 40 47 55 29 24 27 25 4 301 274 225 187 153 195 259 275 298 296 276 222 171 143 144 141 137 170 232 260 277 276 269 267 271 277 283
60 66 32 38 71 83 80 75 62 52 59 72 72 66 68 104 102 42 32 36 37 32 44 44 18 18 11 34 70 2 348 35 38 31 45 29 18 43 19 1 335 322 327 324 27 24 352 299 306 289 289 60 131 59 52 78 72 4 357 99 128 323 30 338 289 98 90 262 230 266 286 278 222 161 148 150 161 182 205 226 247 260 267 272 274 277 281 285
71 63 27 50 68 88 85 70 38 28 67 68 67 72 85 103 93 54 22 18 20 25 51 52 24 22 20 15 14 2 7 20 15 25 66 64 35 26 13 352 332 313 321 330 103 53 15 294 284 282 328 77 101 73 55 74 90 329 276 149 153 148 101 204 271 306 10 295 277 256 266 277 205 152 152 167 184 201 215 229 248 262 271 271 271 279 286 290
68 53 27 48 66 85 92 82 32 48 70 96 92 72 71 77 63 81 40 12 0 332 47 60 23 34 40 4 336 5 20 15 7 31 88 105 80 75 23 357 339 324 328 317 45 18 15 298 288 280 56 91 102 76 44 39 64 249 224 160 149 145 124 184 242 23 354 266 275 274 259 265 225 185 174 173 186 198 212 233 248 250 258 271 284 297 301 300
71 59 46 39 78 96 89 88 91 83 93 121 99 73 73 66 49 62 43 16 20 349 354 82 59 31 31 349 341 30 27 19 36 38 62 85 99 154 24 7 3 9 21 45 327 344 353 89 322 305 317 339 342 37 346 329 340 255 209 131 124 132 117 100 237 105 246 229 215 247 264 257 215 197 188 177 184 200 218 237 248 255 280 306 315 313 309 305
73 60 51 52 80 92 82 97 124 116 119 114 100 96 98 71 43 58 53 34 42 12 357 109 45 358 23 334 275 99 44 16 36 70 63 67 104 157 127 10 24 37 35 346 318 329 327 308 327 337 307 303 296 281 287 290 259 252 168 137 142 147 141 140 271 210 244 231 209 221 266 277 263 193 197 201 201 227 258 277 287 295 309 320 317 312 309 306
74 64 53 56 71 77 77 93 109 113 130 124 96 69 79 82 74 80 68 54 55 31 31 84 250 277 340 310 209 119 57 27 40 79 103 84 132 157 152 20 33 20 14 11 0 350 258 291 328 121 214 239 267 271 278 307 283 271 233 175 169 167 167 160 171 228 239 263 247 233 253 278 285 272 263 281 296 311 319 322 317 310 312 316 315 312 309 305
81 62 39 61 70 70 69 69 74 90 109 93 95 57 57 102 132 110 85 72 70 67 50 48 35 0 6 355 357 115 129 75 64 79 89 334 122 140 218 225 131 358 358 10 7 10 258 261 78 45 245 238 260 274 280 292 272 266 266 222 183 169 166 166 202 232 256 345 281 259 257 278 288 295 304 312 320 325 324 320 316 315 316 316 316 312 307 305
90 91 82 103 90 52 56 54 55 70 67 59 100 109 71 102 102 39 81 81 110 106 34 47 67 49 34 17 331 258 174 178 117 108 175 237 198 173 215 211 192 287 279 212 54 63 241 249 142 248 272 269 267 266 265 263 258 260 263 252 226 191 175 191 225 238 239 245 260 274 290 285 284 294 305 310 310 306 319 325 321 317 317 316 314 311 307 306
107 108 83 88 96 88 96 92 80 80 69 64 86 48 47 88 86 65 37 318 169 90 353 20 94 66 42 3 309 264 138 175 195 189 185 184 234 237 227 214 205 222 266 226 57 72 155 249 173 212 288 292 277 262 258 254 258 266 263 255 253 236 212 220 240 241 232 238 254 274 285 280 279 289 293 298 303 303 313 321 316 312 314 314 310 308 307 306
117 122 110 103 97 90 90 83 88 101 84 63 79 27 0 69 96 127 44 9 73 26 2 24 66 73 97 313 302 332 34 19 338 279 191 162 188 233 219 272 180 149 98 69 21 20 78 27 156 173 293 295 280 266 268 253 255 270 270 257 251 252 245 243 252 250 237 246 257 266 274 276 279 282 277 286 303 310 316 320 314 311 312 311 309 307 305 304
118 123 123 114 93 56 75 53 341 99 60 26 57 82 272 66 80 116 75 37 57 42 14 7 358 336 199 244 306 78 49 17 8 12 152 159 161 191 183 24 98 183 134 94 27 352 24 309 225 86 311 289 247 182 264 273 277 275 274 268 255 249 243 237 242 237 226 247 265 271 271 274 284 290 283 289 304 312 319 322 317 313 311 309 307 305 302 301
121 123 125 117 99 22 38 3 343 70 67 26 52 70 92 90 100 129 115 87 83 58 19 3 354 319 227 189 107 109 282 248 224 191 159 159 121 104 153 147 129 161 132 122 141 9 74 286 280 74 302 279 293 306 294 310 316 282 261 254 243 238 236 234 238 233 225 236 259 267 264 270 290 302 296 298 311 320 321 319 315 311 308 304 301 299 298 297